EHI
20 22 22 17 17 20 22 20 17 11 9 15 21 25 24 17 11 12 12 7 2 0 0 0 0 0 0 0 0 0 0 0 0 0 0 0 0 0
20 22 23 21 21 23 23 22 21 16 12 15 21 23 22 16 13 15 14 9 3 0 0 0 0 0 0 0 0 0 0 0 0 0 0 0 0 0
22 23 25 26 25 24 22 22 22 19 15 16 20 23 23 18 15 16 14 10 5 1 0 0 0 0 0 0 0 0 0 0 0 0 0 0 0 0
28 27 27 27 27 24 21 20 19 17 16 17 21 24 22 18 16 14 12 10 6 2 0 0 0 0 0 0 0 0 0 0 0 0 0 0 0 0
32 30 27 27 26 24 22 21 19 15 16 17 19 22 20 17 15 14 12 10 7 4 1 0 0 0 0 0 0 0 0 0 0 0 0 0 0 0
29 27 26 25 24 22 22 22 20 17 18 17 16 19 19 17 15 13 11 10 8 6 4 2 1 0 0 0 0 0 0 0 0 0 0 0 0 0
27 26 24 22 20 17 17 19 19 18 19 16 14 15 16 15 14 12 10 9 8 8 7 4 2 0 0 0 0 0 0 0 0 0 0 0 0 0
29 26 22 19 19 16 13 12 12 13 14 13 13 13 14 14 13 11 9 7 7 8 7 4 2 1 1 1 0 0 0 0 0 0 0 0 0 0
30 27 23 20 21 21 16 10 9 8 8 10 12 14 15 15 15 12 8 6 7 7 5 3 3 2 2 1 0 0 0 0 0 0 0 0 0 0
29 29 27 23 20 22 21 16 13 10 7 8 11 13 14 14 14 12 9 7 7 6 5 4 4 4 3 2 0 0 0 0 0 0 0 0 0 0
29 29 28 22 15 16 20 22 21 17 10 6 7 8 8 9 11 11 9 7 6 6 6 5 5 4 3 2 0 0 0 0 0 0 0 0 0 0
28 26 21 15 9 9 16 22 22 19 13 9 7 6 6 5 6 7 7 6 5 5 6 7 6 4 2 2 1 0 0 0 0 0 0 0 0 0
24 22 16 9 4 4 9 15 17 15 14 13 13 12 10 7 6 5 5 4 4 4 6 7 7 5 2 2 2 1 0 0 0 0 0 0 0 0
19 16 12 6 2 1 3 7 9 11 13 15 16 15 13 11 10 8 6 5 4 4 5 5 5 5 3 2 2 1 0 0 0 0 0 0 0 0
10 8 5 2 0 0 1 3 6 9 12 14 15 16 15 14 13 12 9 8 6 5 5 5 4 4 4 3 1 1 0 1 2 1 0 0 0 0
4 3 2 1 0 1 3 4 6 9 11 12 15 17 17 16 14 13 11 10 8 6 5 5 5 4 3 2 1 0 0 2 2 2 0 0 0 0
3 4 4 4 3 4 7 9 9 10 11 12 15 18 19 17 14 11 10 10 8 6 6 6 6 4 2 1 1 0 0 1 2 1 0 0 0 0
5 5 6 6 6 6 8 10 10 10 11 13 16 18 18 17 13 11 9 9 7 6 6 6 6 4 2 0 0 0 0 1 1 0 0 0 0 0
6 6 7 7 7 7 8 9 10 11 11 13 15 17 17 16 13 11 9 7 6 4 5 6 6 5 2 0 0 0 0 1 1 0 0 0 0 0
7 6 6 6 6 7 8 10 11 12 12 13 14 15 14 13 12 10 8 5 3 2 2 3 5 5 3 2 1 0 0 1 1 0 0 0 0 0
5 5 5 5 6 7 8 9 10 11 12 13 13 13 12 10 9 8 6 4 2 1 1 2 3 4 5 4 2 0 0 0 0 0 0 0 0 0
5 5 5 6 6 7 7 7 8 9 10 11 10 10 10 8 7 6 5 4 3 2 2 2 3 5 6 5 2 0 0 0 0 0 0 0 0 0
6 6 6 6 6 6 6 6 6 7 8 8 8 8 9 9 7 6 5 4 3 3 3 3 4 5 5 4 1 0 0 0 0 0 0 0 0 0
Wind_Speed
4 3 3 3 3 2 2 1 2 2 2 2 2 2 2 3 6 4 4 6 6 6 5 5 4 3 3 2 2 1 1 1 1 1 1 1 0 0
3 3 3 3 3 2 2 2 2 2 2 1 2 3 3 4 6 4 5 8 7 7 6 5 5 4 3 2 2 1 1 1 1 2 2 2 2 1
4 4 4 3 3 3 2 2 2 2 2 2 1 2 3 3 4 4 5 5 5 8 8 7 6 5 4 3 3 2 1 1 2 2 3 3 3 3
4 4 4 4 4 3 3 3 2 2 2 2 2 2 2 3 4 5 5 6 5 9 10 9 7 6 5 4 4 3 2 2 2 3 3 3 4 4
3 4 4 4 4 3 3 3 2 3 2 3 3 2 2 3 4 4 4 3 5 7 9 9 8 7 6 6 5 4 3 3 2 2 3 3 3 3
4 4 4 4 4 4 4 3 3 3 3 3 3 3 2 3 3 3 3 3 3 5 5 7 7 8 7 7 6 6 5 4 3 3 3 3 2 2
4 3 4 3 4 3 3 3 3 3 3 3 3 2 2 2 3 3 3 3 2 3 4 5 5 4 5 7 7 7 6 6 5 4 3 3 2 2
4 3 3 4 4 5 3 2 3 4 4 3 3 3 3 3 3 3 2 3 3 3 3 4 5 5 5 5 8 9 9 8 7 5 4 4 3 3
4 3 4 4 3 3 4 4 3 4 5 4 4 4 3 3 3 4 3 3 3 3 3 3 3 4 4 5 11 11 10 9 8 7 6 5 4 4
4 4 4 3 3 2 3 4 4 4 5 5 4 3 3 3 4 4 4 3 3 2 3 3 3 3 3 3 9 11 11 10 9 8 7 6 5 4
5 5 5 4 4 4 4 4 3 3 4 4 4 4 4 4 4 2 3 3 3 3 2 2 2 2 2 3 5 10 10 10 9 9 8 7 6 4
3 3 4 4 4 5 4 4 4 4 3 3 3 4 4 5 6 5 4 4 3 2 3 3 2 2 2 2 4 5 6 8 8 8 8 7 6 3
3 2 1 3 3 4 5 4 5 4 3 4 4 4 4 3 4 4 4 4 3 3 3 3 3 2 2 2 3 4 5 5 5 5 7 8 7 5
3 2 1 2 2 3 4 5 5 4 3 3 4 3 3 4 3 4 4 4 4 4 4 4 3 3 3 2 2 3 4 5 5 5 5 6 7 7
2 2 2 2 3 4 6 6 5 4 4 4 4 3 3 3 3 3 4 4 3 4 4 4 4 3 3 3 3 3 3 4 5 4 5 5 5 5
3 3 3 3 3 4 3 3 4 4 4 4 4 3 2 2 3 3 3 3 3 3 3 4 4 5 4 3 3 3 3 3 4 4 4 4 4 4
2 3 3 2 3 3 3 3 3 3 4 4 3 3 3 3 3 3 2 3 3 3 3 3 3 3 4 3 3 3 3 3 3 4 3 3 3 4
2 3 4 4 4 3 3 3 3 3 3 3 3 3 3 3 3 3 3 3 3 3 3 3 3 2 2 2 3 4 3 3 3 3 3 3 3 3
3 4 4 4 4 4 3 3 3 3 3 3 3 3 3 3 3 3 3 3 3 3 3 3 3 4 4 4 2 3 3 3 3 3 3 3 3 3
5 5 5 4 3 3 3 3 2 2 2 3 3 3 3 3 3 3 3 3 3 3 3 3 3 4 5 4 3 2 4 4 3 3 3 2 1 2
4 4 4 4 3 3 2 2 2 3 3 3 3 3 3 3 3 3 3 4 4 4 4 4 4 4 3 2 2 2 2 4 5 4 4 3 3 2
4 4 3 3 2 2 2 2 3 3 3 3 3 3 2 3 3 3 3 3 3 3 3 2 3 3 2 3 4 3 2 2 2 3 3 4 4 4
3 3 3 3 3 3 2 3 3 3 3 2 2 2 2 2 2 2 2 2 2 2 2 2 2 2 2 3 3 3 3 3 3 3 2 2 4 4
Wind_Direction
244 244 248 259 259 250 239 220 231 252 245 217 193 156 142 131 146 151 145 149 150 150 151 149 141 133 123 119 117 106 91 75 68 59 61 46 352 272
233 239 243 252 265 257 237 228 228 231 250 238 210 166 169 164 163 158 148 152 157 159 161 157 151 146 141 136 128 123 116 104 101 97 92 89 73 57
240 232 233 246 254 264 258 244 238 217 233 248 245 171 163 154 158 157 159 166 165 172 170 166 163 161 159 154 147 141 127 107 101 100 100 94 86 80
235 235 235 234 234 254 258 245 238 219 212 235 233 200 192 178 170 187 183 181 173 180 179 176 171 169 170 170 163 156 143 124 109 104 100 93 88 82
241 240 240 236 231 231 240 245 240 236 208 216 234 214 200 194 187 210 202 187 183 175 180 181 177 176 180 179 177 171 163 151 137 127 110 99 92 87
245 242 242 237 232 234 239 244 250 254 233 220 228 220 208 200 196 203 210 203 198 184 173 174 179 183 188 187 186 182 178 172 162 147 130 121 114 102
248 246 243 231 224 227 237 229 236 245 247 232 226 225 214 200 210 215 214 207 199 181 169 177 177 188 195 199 197 192 186 181 175 168 163 163 159 145
247 250 250 228 222 213 218 220 223 236 250 247 235 220 215 212 216 226 219 211 214 187 182 195 180 190 192 193 191 189 189 187 183 180 183 186 186 181
239 239 252 248 221 214 217 223 240 248 247 249 255 245 221 211 214 225 222 224 226 190 182 209 188 196 192 186 179 184 187 188 187 187 191 194 196 200
236 229 233 249 243 217 229 226 230 243 245 238 247 253 236 215 209 218 226 228 223 200 171 205 199 198 179 162 175 182 186 187 190 191 194 198 202 208
236 231 222 220 210 209 219 225 237 243 242 230 236 246 245 231 216 217 224 215 219 210 189 190 195 176 164 171 184 189 189 193 196 197 198 201 206 209
236 228 218 208 202 203 219 224 231 241 248 238 236 248 241 224 213 211 214 219 221 209 185 179 191 174 185 180 174 184 196 202 203 204 201 203 201 199
239 228 190 169 192 214 227 235 238 249 250 245 233 222 218 219 212 214 211 209 214 224 186 171 189 195 193 176 176 186 188 187 190 202 206 204 201 195
261 238 159 167 207 227 231 235 243 251 254 248 240 224 212 212 215 212 210 215 217 215 203 183 189 192 197 200 192 185 193 187 180 187 191 193 201 203
267 284 281 251 245 246 237 238 238 238 235 239 239 235 219 210 207 206 204 204 221 233 219 204 199 195 199 209 194 187 188 189 183 180 183 184 188 187
258 270 254 242 240 251 253 243 230 235 233 231 234 234 224 214 213 205 202 199 202 222 227 214 204 201 215 216 190 196 192 185 179 179 181 188 187 186
276 257 250 236 233 232 235 232 228 222 234 243 240 238 229 220 219 212 206 211 211 210 209 216 202 196 203 199 199 203 195 188 175 173 180 199 196 187
233 249 248 243 242 240 237 239 237 235 234 237 240 239 237 232 228 217 206 209 215 216 209 197 182 186 209 235 216 205 201 188 173 175 184 192 202 188
227 242 244 238 239 243 242 240 239 235 233 235 239 241 238 236 233 231 217 209 217 222 215 194 188 193 208 225 233 211 194 185 178 190 196 197 202 186
230 235 239 234 234 236 243 248 245 233 230 240 244 241 238 236 231 226 223 218 220 228 226 205 195 199 206 213 215 228 208 195 185 189 192 190 173 147
243 239 239 238 235 229 231 236 239 235 227 228 239 238 234 234 236 231 221 212 218 225 224 218 214 200 194 182 203 212 202 194 188 186 184 188 191 180
252 248 244 240 228 225 223 227 237 240 227 230 242 236 235 236 241 241 235 225 222 220 220 210 187 182 178 196 213 212 200 181 186 183 179 185 189 193
250 251 244 233 227 217 221 230 239 245 240 234 242 248 249 251 251 245 246 243 231 221 208 195 187 196 203 198 205 212 207 199 187 170 202 225 205 188